Location: Bessat
(45.8735°N, 1.9924°E)
Time: 08:03:37
(UTC+00:00)

NOSS 3-4 (A) - Pass Details

Date: 11 May 2021
Orbit: 872 x 1340 km, 63.4° (Epoch: 06 May)

Event Time Altitude Azimuth Distance (km) Brightness Sun altitude
Rises 21:09:56 0° 321° (NW) 3,790 8.4 -16.7°
Reaches altitude 10° 21:12:27 10° 324° (NW) 2,898 7.3 -16.9°
Maximum altitude 21:19:23 71° 48° (NE) 1,223 4.0 -17.7°
Enters shadow 21:24:06 26° 127° (SE) 2,213 4.8 -18.2°
